[[{"header":{"parameterUnit":"m.s-1","parameterCategory":1,"la1":30.2991,"la2":30.254,"lo1":-89.0895,"lo2":-89.0444,"dy":0.0017,"dx":0.0017,"nx":28,"ny":28,"refTime":"2024-10-11T03:00:00:Z","depth":0,"parameterNumber":2,"parameterNumberName":"U-component_of_WINDS"},"data":[0,0,0,0,0,0,0,0,0,0,0,0,0,0,0,0,0,0,0,0,0,0,0,0,0,0,0,0,0,0,0,0,0,0,0,0,0,0,0,0,0,0,0,0,0,0,0,0,0,0,0,0,0,0,0,0,0,0,0.1518,0.1518,0,0.1552,0.1553,0.1553,0.1583,0.1584,0.1584,0.1584,0.1619,0.162,0.1621,0,0,0,0,0,0,0,0,0,0,0,0,0,0.1475,0.1476,0.1518,0.1518,0.1519,0.1552,0.1553,0.1553,0.1583,0.1584,0.1584,0.1584,0.1619,0.162,0.1621,0,0,0,0,0,0,0,0,0,0,0,0,0,0.15,0.1476,0.1518,0.1538,0.154,0.1552,0.1553,0.1554,0.1583,0.1584,0.1584,0.1585,0.1619,0.162,0.1621,0.1616,0,0,0.1624,0.1624,0,0,0,0,0,0,0,0,0.1499,0.1502,0.1534,0.1536,0.1539,0.1564,0.1551,0.1575,0.1583,0.1567,0.1584,0.1585,0.1601,0.1603,0.1608,0.1618,0.1619,0.1624,0.1624,0.1625,0.1625,0,0,0,0,0,0,0,0.1497,0.15,0.1531,0.1535,0.1537,0.1544,0.1548,0.1555,0.158,0.1568,0.157,0.1574,0.1602,0.1607,0.1609,0.162,0.1624,0.1624,0.1625,0.1625,0.1625,0.1625,0,0,0,0,0,0,0.1492,0.1499,0.153,0.1532,0.1519,0.1544,0.1549,0.1555,0.158,0.1585,0.1574,0.1575,0.1606,0.1608,0.1611,0.1606,0.1625,0.1625,0.1626,0.1626,0.1625,0.1625,0,0,0,0,0,0,0.1491,0.1495,0.1529,0.1516,0.1521,0.1545,0.1551,0.1556,0.1561,0.1584,0.1589,0.1575,0.1606,0.1609,0.1614,0.1608,0.1626,0.1627,0.1627,0.1626,0.1625,0.1597,0,0,0,0,0,0,0.149,0.1494,0.1493,0.1516,0.1522,0.1532,0.1551,0.1556,0.1563,0.1566,0.1587,0.1591,0.1607,0.1613,0.1615,0.1609,0.1627,0.1627,0.1626,0.1625,0.1598,0.1595,0.1592,0,0,0,0,0,0.1488,0.1484,0.1493,0.1497,0.1521,0.1532,0.1535,0.1554,0.1562,0.1561,0.1576,0.159,0.1608,0.1613,0.1616,0.161,0.1628,0.1627,0.1625,0.16,0.1596,0.1592,0,0,0,0,0,0,0.1461,0.1488,0.1498,0.1501,0.1514,0.1537,0.1536,0.1549,0.156,0.1562,0.1584,0.1588,0.159,0.1601,0.1606,0.1606,0.162,0.1619,0.1599,0.1595,0.1592,0.1589,0.1628,0,0,0,0,0,0.1455,0.1462,0.1485,0.1486,0.1491,0.1512,0.1518,0.1531,0.1545,0.1551,0.1566,0.1578,0.1587,0.1592,0.1601,0.16,0.1604,0.1597,0.1594,0.1592,0.159,0.1589,0.1586,0.1621,0.1621,0.1621,0,0,0.1443,0.1459,0.1462,0.148,0.1492,0.1498,0.1517,0.1523,0.1527,0.1552,0.1557,0.1568,0.1584,0.1585,0.1586,0.1594,0.1582,0.159,0.1588,0.1588,0.1587,0.1584,0.1581,0.162,0.162,0.162,0,0,0.1425,0.1438,0.1439,0.1449,0.1466,0.148,0.148,0.1501,0.1509,0.1515,0.1533,0.1538,0.1552,0.1562,0.1569,0.1552,0.1565,0.1554,0.1538,0.1536,0.1533,0.1531,0.1524,0.1521,0.1553,0.1553,0.1553,0,0.1408,0.1418,0.1438,0.1442,0.1449,0.1471,0.1471,0.1481,0.15,0.1504,0.1512,0.1529,0.1541,0.1544,0.154,0.1545,0.1545,0.1552,0.1532,0.153,0.1528,0.1521,0.1518,0.1552,0.1552,0.1552,0.1552,0,0.1395,0.1402,0.1401,0.1418,0.1425,0.1427,0.1446,0.1451,0.1463,0.1475,0.148,0.1495,0.1507,0.1508,0.1521,0.1513,0.1517,0.1528,0.1542,0.1523,0.1517,0.1514,0.1549,0.155,0.155,0.1551,0,0,0.1361,0.1388,0.1387,0.1394,0.1414,0.1419,0.1422,0.1433,0.1435,0.1447,0.1449,0.146,0.147,0.1478,0.1491,0.149,0.1473,0.1501,0.1502,0.1495,0.1464,0.1454,0.1451,0.1482,0.1482,0.1482,0.1462,0,0.1345,0.1351,0.1368,0.1369,0.1374,0.1395,0.1397,0.1408,0.142,0.1425,0.1438,0.1445,0.1458,0.1463,0.1462,0.1476,0.1467,0.1477,0.1483,0.1483,0.1478,0.1448,0.1438,0.1419,0.146,0.146,0.1459,0,0.1327,0.1337,0.1338,0.1355,0.1358,0.136,0.137,0.1376,0.1389,0.1397,0.1405,0.1419,0.1422,0.1435,0.1439,0.1445,0.1448,0.1455,0.1455,0.1455,0.147,0.1447,0.1414,0.141,0.1456,0.1456,0.1456,0,0.13,0.1314,0.1316,0.1321,0.1342,0.1342,0.1351,0.1365,0.137,0.1379,0.1382,0.1392,0.1396,0.1403,0.1419,0.1427,0.142,0.1435,0.1426,0.1425,0.1423,0.1423,0.1389,0.1427,0.1427,0.1427,0.1427,0,0.128,0.1279,0.1304,0.1305,0.1304,0.1323,0.1322,0.1333,0.1344,0.1347,0.1365,0.1367,0.1389,0.1393,0.1405,0.1405,0.1408,0.1414,0.1417,0.1412,0.1411,0.1414,0.1415,0.1426,0.1426,0.1426,0.1427,0,0.125,0.1266,0.1269,0.1288,0.1293,0.1291,0.1307,0.1308,0.132,0.1323,0.1325,0.1344,0.135,0.1366,0.1377,0.1385,0.1381,0.1388,0.1376,0.1378,0.1367,0.1368,0.1334,0.1329,0.1371,0.137,0.137,0,0.1235,0.1235,0.1253,0.1256,0.1264,0.1269,0.1274,0.1292,0.1296,0.131,0.1309,0.1316,0.1323,0.1331,0.1345,0.1352,0.1359,0.1346,0.136,0.1354,0.1357,0.1356,0.1356,0.1343,0.1342,0.1342,0.1342,0,0.1207,0.1215,0.1221,0.123,0.1235,0.1243,0.1251,0.1253,0.1273,0.1277,0.1283,0.1287,0.1297,0.1303,0.1313,0.1321,0.1334,0.1337,0.1335,0.1329,0.1322,0.1324,0.1367,0.1338,0.1338,0.1338,0.1339,0.1339,0.1183,0.1183,0.1196,0.1202,0.121,0.1217,0.1219,0.1231,0.1236,0.1245,0.1256,0.126,0.1271,0.1285,0.1292,0.1295,0.1302,0.13,0.1299,0.1297,0.1294,0.1322,0.1297,0.1297,0.1297,0.1297,0.1297,0,0.1155,0.1164,0.1169,0.118,0.1184,0.1196,0.1206,0.1209,0.1212,0.1221,0.1227,0.1233,0.1239,0.1253,0.1259,0.1259,0.1265,0.126,0.126,0.1261,0.1288,0.1289,0.1255,0.1255,0.1255,0.1255,0.1255,0.1255,0.1141,0.1141,0.115,0.1153,0.1162,0.1166,0.117,0.1177,0.1184,0.119,0.1194,0.1203,0.1214,0.1222,0.1227,0.1231,0.1232,0.1225,0.123,0.1255,0.1259,0.1263,0.1264,0.1225,0.1225,0.1203,0.1203,0.1202]},{"header":{"parameterUnit":"m.s-1","parameterCategory":1,"la1":30.2991,"la2":30.254,"lo1":-89.0895,"lo2":-89.0444,"dy":0.0017,"dx":0.0017,"nx":28,"ny":28,"refTime":"2024-10-11T03:00:00:Z","depth":0,"parameterNumber":3,"parameterNumberName":"V-component_of_WINDS"},"data":[0,0,0,0,0,0,0,0,0,0,0,0,0,0,0,0,0,0,0,0,0,0,0,0,0,0,0,0,0,0,0,0,0,0,0,0,0,0,0,0,0,0,0,0,0,0,0,0,0,0,0,0,0,0,0,0,0,0,2.294,2.294,0,2.2884,2.2884,2.2883,2.2875,2.2876,2.2876,2.2877,2.2814,2.2812,2.281,0,0,0,0,0,0,0,0,0,0,0,0,0,2.3035,2.3033,2.294,2.294,2.2939,2.2884,2.2884,2.2883,2.2875,2.2876,2.2877,2.2877,2.2815,2.2812,2.281,0,0,0,0,0,0,0,0,0,0,0,0,0,2.2988,2.3033,2.2941,2.2929,2.2927,2.2885,2.2884,2.2883,2.2875,2.2876,2.2877,2.2877,2.2816,2.2812,2.2809,2.2773,0,0,2.2799,2.2798,0,0,0,0,0,0,0,0,2.2991,2.2984,2.2931,2.2929,2.2928,2.2888,2.2894,2.2846,2.2875,2.2895,2.2877,2.2878,2.2838,2.2833,2.282,2.277,2.2767,2.2799,2.2797,2.2796,2.2795,0,0,0,0,0,0,0,2.2994,2.2987,2.2918,2.293,2.2928,2.2924,2.2919,2.2885,2.2862,2.2893,2.2892,2.2886,2.2837,2.2823,2.2819,2.2766,2.2799,2.2796,2.2794,2.2793,2.2682,2.2681,0,0,0,0,0,0,2.3,2.299,2.292,2.2916,2.2962,2.2922,2.2916,2.29,2.2863,2.2858,2.2885,2.2886,2.2828,2.2822,2.2816,2.277,2.2796,2.2793,2.2791,2.2683,2.2682,2.2681,0,0,0,0,0,0,2.3002,2.2994,2.2922,2.2953,2.2943,2.292,2.2902,2.2898,2.2885,2.2857,2.2852,2.2876,2.2829,2.2821,2.2784,2.2768,2.2791,2.2788,2.2684,2.2682,2.2681,2.2678,0,0,0,0,0,0,2.3005,2.2995,2.2982,2.2953,2.2942,2.2892,2.2901,2.2896,2.288,2.288,2.2847,2.2842,2.2829,2.2789,2.2781,2.2764,2.2786,2.2685,2.2683,2.2682,2.268,2.2677,2.2674,0,0,0,0,0,2.3008,2.2983,2.2982,2.2973,2.2926,2.2891,2.2885,2.2872,2.2879,2.2865,2.2847,2.2843,2.2771,2.2785,2.2776,2.2758,2.2686,2.2684,2.2682,2.2681,2.2677,2.2674,0,0,0,0,0,0,2.3009,2.2979,2.2977,2.2941,2.2919,2.289,2.2872,2.2869,2.2843,2.2844,2.2827,2.2819,2.2782,2.2766,2.2782,2.272,2.2729,2.2725,2.2731,2.2728,2.2725,2.2729,2.2783,0,0,0,0,0,2.3006,2.2982,2.2956,2.2927,2.2916,2.2896,2.2881,2.2872,2.2848,2.2838,2.2817,2.2792,2.2764,2.2745,2.2718,2.2678,2.2669,2.2661,2.2658,2.2656,2.2652,2.2628,2.2623,2.2673,2.2673,2.2673,0,0,2.2997,2.2978,2.2963,2.2927,2.2908,2.2882,2.2888,2.2861,2.284,2.2833,2.2797,2.2781,2.2752,2.2713,2.2694,2.2698,2.2636,2.2653,2.2652,2.2649,2.2625,2.262,2.2616,2.2672,2.2672,2.2672,0,0,2.2968,2.2952,2.2925,2.2907,2.288,2.2867,2.2861,2.2832,2.2822,2.2786,2.2779,2.2754,2.2706,2.2685,2.2668,2.2631,2.2626,2.2622,2.2608,2.2585,2.2581,2.2577,2.2562,2.2557,2.2619,2.2619,2.2619,0,2.296,2.2923,2.2912,2.2884,2.2867,2.2862,2.2833,2.2816,2.278,2.2768,2.2773,2.2712,2.2692,2.2647,2.2638,2.2625,2.2616,2.2625,2.2583,2.2579,2.2575,2.256,2.2555,2.2618,2.2618,2.2618,2.2618,0,2.2914,2.2888,2.2869,2.2837,2.2818,2.279,2.2773,2.2755,2.2748,2.2734,2.2696,2.2672,2.2639,2.2628,2.2621,2.2581,2.2584,2.2587,2.2595,2.257,2.2556,2.255,2.2618,2.2618,2.2618,2.2618,0,0,2.2883,2.2845,2.2838,2.2823,2.2793,2.2771,2.2742,2.2712,2.2695,2.2671,2.2645,2.2605,2.2606,2.2587,2.2577,2.2557,2.2527,2.2561,2.256,2.2554,2.248,2.2477,2.2471,2.2524,2.2523,2.2522,2.2482,0,2.2849,2.28,2.2789,2.2745,2.2719,2.2713,2.2688,2.2665,2.2651,2.2626,2.261,2.2581,2.2586,2.2574,2.2554,2.2535,2.2511,2.2538,2.2497,2.2496,2.2503,2.2464,2.2461,2.2424,2.2476,2.2475,2.2475,0,2.2803,2.2779,2.2734,2.2706,2.2694,2.2672,2.2642,2.2619,2.2593,2.2584,2.2562,2.2555,2.2522,2.2534,2.2488,2.2506,2.2489,2.2477,2.2475,2.2469,2.2483,2.2455,2.2412,2.2406,2.2466,2.2467,2.2467,0,2.2783,2.2739,2.2706,2.2693,2.266,2.2644,2.263,2.2605,2.2586,2.256,2.2547,2.2517,2.25,2.2475,2.2459,2.2469,2.2413,2.2424,2.2403,2.2403,2.239,2.239,2.2341,2.2382,2.2382,2.2382,2.2382,0,2.2746,2.2717,2.2697,2.2676,2.2643,2.263,2.2598,2.2582,2.256,2.2535,2.2527,2.2503,2.2484,2.2457,2.2444,2.2406,2.2399,2.2389,2.2385,2.2388,2.2389,2.2376,2.2377,2.2381,2.2381,2.2381,2.2382,0,2.2717,2.2702,2.2665,2.2638,2.263,2.2607,2.2582,2.256,2.2547,2.2514,2.2506,2.2483,2.2451,2.2432,2.2391,2.2382,2.234,2.2339,2.2349,2.2347,2.2326,2.2328,2.2265,2.2255,2.2304,2.2304,2.2303,0,2.2693,2.2672,2.2642,2.2625,2.261,2.2584,2.2565,2.2551,2.2532,2.25,2.2482,2.2449,2.2422,2.237,2.2349,2.2317,2.2313,2.2293,2.2308,2.2311,2.231,2.2311,2.2308,2.229,2.229,2.2289,2.2289,0,2.2652,2.2646,2.2621,2.2592,2.2571,2.2548,2.2524,2.2511,2.2492,2.2471,2.2438,2.2418,2.2376,2.2343,2.2309,2.2292,2.2286,2.2285,2.2278,2.228,2.2286,2.228,2.234,2.2286,2.2286,2.2286,2.2287,2.2287,2.2624,2.2604,2.2579,2.2551,2.2532,2.2511,2.2489,2.2472,2.2446,2.2412,2.2405,2.237,2.2342,2.2297,2.2279,2.225,2.2253,2.2243,2.224,2.2238,2.2236,2.2293,2.2244,2.2244,2.2244,2.2244,2.2244,0,2.258,2.2565,2.2539,2.2507,2.2484,2.2484,2.2458,2.2438,2.2408,2.2384,2.2358,2.232,2.2287,2.2264,2.223,2.2211,2.2208,2.2203,2.2203,2.2199,2.2236,2.2245,2.2206,2.2206,2.2206,2.2206,2.2206,2.2206,2.2555,2.252,2.2511,2.2466,2.245,2.2417,2.2402,2.2381,2.2362,2.232,2.2294,2.2279,2.2255,2.2219,2.2189,2.2183,2.2169,2.2164,2.2157,2.2192,2.2196,2.22,2.2208,2.2162,2.2162,2.2122,2.2122,2.2121]}]]